#timestamp,LO_Frequency,Hit,StdDev 
1512586815.1,286046962.3,N
1512586835.9,286046961.1,N
1512586855.7,286046959.6,N
1512586875.5,286046956.7,N
1512586895.4,286046957.3,N
1512586915.2,286046956.5,N
1512586935.0,286046954.9,N
1512586935.9,286046954.9,N
1512586955.8,286046961.5,N
1512586975.6,286046963.9,N
1512586995.4,286046966.0,N
1512587015.2,286046965.1,N
1512587035.1,286046963.7,Y
1512587036.0,286046963.7,P
1512587055.8,286046990.3,N
1512587075.6,286046990.3,N
1512587095.5,286046988.1,N
1512587115.3,286046986.1,N
1512587135.1,286046988.4,N
1512587155.9,286046987.0,N
1512587175.7,286046988.5,N
1512587195.5,286046993.4,N
1512587215.4,286046995.3,N
1512587235.2,286046996.8,N
1512587255.0,286046996.8,N
1512587255.9,286046996.8,N
1512587275.8,286046995.7,N
1512587295.6,286046995.4,N
1512587315.4,286046993.9,N
1512587335.3,286046994.4,N
1512587355.1,286046987.4,N
1512587356.0,286046987.4,N
1512587375.8,286046991.2,N
1512587395.6,286046993.1,N
1512587415.5,286046989.4,N
1512587435.3,286046993.2,N
1512587455.1,286046989.9,N
1512587475.9,286046987.3,N
1512587495.7,286046991.3,N
1512587515.5,286046990.2,N
1512587535.4,286046994.1,N
1512587555.2,286046996.8,N
1512587575.0,286046997.1,N
1512587575.9,286046997.1,N
1512587595.8,286046995.7,N
1512587615.6,286046997.8,N
1512587635.4,286046998.2,N
1512587655.3,286047006.0,N
1512587675.1,286047003.3,N
1512587676.0,286047003.3,N
1512587695.8,286047007.2,N
1512587715.6,286047005.2,N
1512587735.5,286047006.9,N
1512587755.3,286047006.5,N
1512587775.1,286047007.9,N
1512587795.9,286047006.6,N
1512587815.7,286047008.1,N
1512587835.5,286047009.2,N
1512587855.4,286047006.6,N
1512587875.2,286047010.5,N
1512587895.0,286047007.7,N
1512587895.9,286047007.7,N
1512587915.8,286047014.0,N
1512587935.6,286047015.2,N
1512587955.4,286047015.0,N
1512587975.3,286047013.8,N
1512587995.1,286047013.6,N
1512587996.0,286047013.6,N
1512588015.8,286047013.4,N
1512588035.7,286047013.7,N
1512588055.5,286047009.8,N
1512588075.3,286047011.2,N
1512588095.1,286047012.0,N
1512588115.9,286047011.1,N
1512588135.7,286047012.4,N
1512588155.5,286047011.8,N
1512588175.4,286047011.3,N
1512588195.2,286047009.7,N
1512588215.0,286047008.5,N
1512588215.9,286047008.5,N
1512588235.8,286047011.1,Y
1512588255.6,286047009.1,P
1512588275.4,286047015.3,P
1512588295.3,286047020.1,P
1512588315.1,286047016.6,Y
1512588335.8,286046999.8,P
1512588355.7,286047006.4,N
1512588375.5,286047006.2,N
1512588395.3,286047008.7,N
1512588415.2,286047005.9,N
1512588435.9,286047004.4,N
1512588455.7,286046997.0,N
1512588475.6,286046992.0,N
1512588495.4,286046992.5,N
1512588515.2,286046995.8,N
1512588535.0,286046992.6,N
1512588536.0,286046992.6,N
1512588555.8,286046991.0,N
1512588575.6,286046993.2,N
1512588595.4,286046993.9,N
1512588615.3,286046995.1,N
1512588635.1,286046998.9,N
1512588655.8,286046998.9,N
1512588675.7,286047000.5,N
1512588695.5,286047001.1,N
1512588715.3,286047003.0,N
1512588735.2,286047001.6,N
1512588755.9,286046998.5,N
1512588775.7,286046999.8,N
1512588795.6,286047000.9,N
1512588815.4,286046996.8,N
1512588835.2,286046993.9,N
1512588855.0,286046988.8,N
1512588855.9,286046988.8,N
1512588875.8,286046988.0,N
1512588895.6,286046985.2,N
1512588915.4,286046985.9,N
1512588935.3,286046989.4,N
1512588955.1,286046990.1,N
1512588975.8,286046994.6,N
1512588995.7,286046992.6,N
1512589015.5,286046993.1,N
1512589035.3,286046994.0,N
1512589055.2,286046996.4,N
1512589075.9,286046994.6,N
1512589095.7,286046993.5,N
1512589115.6,286046998.0,N
1512589135.4,286046994.9,N
1512589155.2,286046991.3,N
1512589175.1,286046984.1,Y
1512589176.0,286046984.1,P
1512589195.8,286046984.3,N
1512589215.6,286046983.2,P
1512589235.5,286046977.3,Y
1512589255.3,286046989.6,P
1512589275.1,286046985.6,P
1512589295.9,286046982.9,P
1512589315.7,286046979.1,Y
1512589335.5,286046993.0,P
1512589355.4,286046990.9,N
1512589375.2,286046994.3,N
1512589395.0,286046995.4,N
1512589395.9,286046995.4,N
1512589415.8,286046991.9,N
1512589435.6,286046992.2,N
1512589455.4,286046991.7,N
1512589475.3,286046991.7,Y
1512589495.1,286047005.7,P
1512589496.0,286047005.7,N
1512589515.8,286047003.0,N
1512589535.6,286047008.6,N
1512589555.5,286047008.7,N
1512589575.3,286047006.6,N
1512589595.1,286047004.8,N
1512589615.9,286047005.3,N
1512589635.7,286047002.9,N
1512589655.5,286047003.2,N
1512589675.4,286047003.5,N
1512589695.2,286047005.5,N
1512589715.0,286047007.1,N
1512589715.9,286047007.1,N
1512589735.8,286047007.6,N
1512589755.6,286047007.0,N
1512589775.4,286047005.3,N
1512589795.2,286047004.5,N
1512589815.1,286047004.6,N
1512589816.0,286047004.6,N
1512589835.8,286047003.4,N
1512589855.6,286047009.0,N
1512589875.5,286047006.3,N
1512589895.3,286047003.3,N
1512589915.1,286047007.9,N
1512589935.9,286047010.2,Y
1512589955.7,286047003.3,P
1512589975.5,286047006.7,P
1512589995.4,286047008.6,P
1512590015.2,286047006.3,Y
1512590035.0,286047001.7,P
1512590035.9,286047001.7,N
1512590055.8,286046999.7,N
1512590075.6,286047000.2,N
1512590095.4,286047002.2,N
1512590115.3,286047002.1,N
1512590135.1,286047001.8,N
1512590136.0,286047001.8,N
1512590155.8,286046998.2,N
1512590175.7,286046998.6,N
1512590195.5,286047002.0,N
1512590215.3,286047003.1,N
1512590235.2,286047011.4,Y
1512590255.9,286047014.8,P
1512590275.7,286047017.9,N
1512590295.6,286047021.4,N
1512590315.4,286047021.5,N
1512590335.2,286047018.0,N
1512590355.0,286047013.7,N
1512590355.9,286047013.7,N
1512590375.8,286047013.9,N
1512590395.6,286047016.8,N
